Tracking 21605 objects as of 26-Oct-2020
HD Live streaming from Space Station
objects crossing your sky now

HUSKYSAT-1

Track HUSKYSAT-1 now!
10-day predictions
HUSKYSAT-1 is classified as:


NORAD ID: 45119
Int'l Code: 2019-071J
Perigee: 462.4 km
Apogee: 479.3 km
Inclination: 51.6 °
Period: 93.9 minutes
Semi major axis: 6841 km
RCS: Unknown
Launch date: November 2, 2019
Source: United States (US)
Launch site: WALLOPS ISLAND (WLPIS)

Uplink (MHz): 145.910-145.940
Downlink (MHz): 435.840-435.810
Beacon (MHz):
Mode: SSB
Call sign:
Status: Active


Uplink (MHz):
Downlink (MHz):
Beacon (MHz): 435.800/24049.000
Mode: 1200bps BPSK
Call sign:
Status: Active

aabbcc
Your satellite tracking list
Your tracking list is empty




NASA's NSSDC Master Catalog

Two Line Element Set (TLE):
1 45119U 19071J   20300.49168118 +.00004817 +00000-0 +15496-3 0  9999
2 45119 051.6422 089.8780 0012394 164.0203 196.1173 15.34060191041235
Source of the keplerian elements: AFSPC